Location: Abundant Grace Fellowship
(35.0349°N, 90.0924°W)
Time: 21:50:28
(UTC+00:00)

OAO 1 Rocket - Pass Details

Date: 18 January 2026
Orbit: 737 x 748 km, 35.0° (Epoch: 10 February)

Event Time Altitude Azimuth Distance (km) Brightness Sun altitude
Exits shadow 11:26:06 43° 270° (W) 1,035 4.7 -20.5°
Maximum altitude 11:27:51 79° 191° (S) 760 4.4 -20.1°
Drops below altitude 10° 11:33:10 10° 105° (ESE) 2,251 8.2 -19.0°
Sets 11:35:36 0° 104° (ESE) 3,172 9.4 -18.6°
